ACA1218 CYVR-CYYZ

Flight info

Callsign ACA1218
Flight time N/A
Altitude 39000
Route ALNOD DCT IKNIX DCT BEVEL DCT 4930N10000W DCT AGLIN DCT OTNIK BOXUM7
Aircraft A339/H-SADE1E2E3GHIJ3J5M1P2RWXY/LB2D1

Departure

Time 2026-05-08 03:22
Airport Vancouver International Airport (CYVR)

Arrival

Time N/A
Airport Toronto Pearson International Airport (CYYZ)
Time Latitude Longitude Altitude Speed Heading
2026-05-08 02:56 49.19573 -123.18627 25 ft 0 kts 99°
2026-05-08 03:08 49.19573 -123.18632 25 ft 2 kts 101°
2026-05-08 03:08 49.19578 -123.18653 24 ft 2 kts 122°
2026-05-08 03:09 49.19587 -123.18671 24 ft 2 kts 138°
2026-05-08 03:09 49.19599 -123.18684 24 ft 2 kts 154°
2026-05-08 03:09 49.19613 -123.18693 24 ft 2 kts 169°
2026-05-08 03:09 49.19627 -123.18694 24 ft 2 kts 185°
2026-05-08 03:10 49.19633 -123.18693 24 ft 1 kts 191°
2026-05-08 03:10 49.19635 -123.18693 24 ft 0 kts 191°
2026-05-08 03:14 49.19613 -123.18699 24 ft 8 kts 190°
2026-05-08 03:14 49.19544 -123.18717 24 ft 11 kts 190°
2026-05-08 03:15 49.19453 -123.18736 24 ft 13 kts 175°
2026-05-08 03:15 49.19357 -123.18698 24 ft 16 kts 182°
2026-05-08 03:15 49.19237 -123.18728 26 ft 17 kts 188°
2026-05-08 03:15 49.19133 -123.18665 27 ft 16 kts 142°
2026-05-08 03:16 49.19029 -123.18536 27 ft 20 kts 141°
2026-05-08 03:16 49.18946 -123.18376 27 ft 19 kts 100°
2026-05-08 03:16 49.18924 -123.18174 27 ft 19 kts 99°
2026-05-08 03:16 49.18898 -123.17943 26 ft 23 kts 100°
2026-05-08 03:17 49.18869 -123.17695 24 ft 24 kts 100°
2026-05-08 03:17 49.18838 -123.17420 24 ft 26 kts 100°
2026-05-08 03:17 49.18808 -123.17151 24 ft 25 kts 100°
2026-05-08 03:17 49.18777 -123.16884 24 ft 25 kts 100°
2026-05-08 03:18 49.18748 -123.16627 24 ft 24 kts 100°
2026-05-08 03:18 49.18720 -123.16380 24 ft 23 kts 101°
2026-05-08 03:18 49.18641 -123.16182 24 ft 20 kts 114°
2026-05-08 03:18 49.18615 -123.15984 22 ft 12 kts 99°
2026-05-08 03:19 49.18611 -123.15949 22 ft 0 kts 99°
2026-05-08 03:19 49.18604 -123.15886 22 ft 10 kts 100°
2026-05-08 03:19 49.18577 -123.15775 21 ft 12 kts 139°
2026-05-08 03:20 49.18487 -123.15768 23 ft 14 kts 201°
2026-05-08 03:20 49.18451 -123.15885 24 ft 13 kts 280°
2026-05-08 03:20 49.18454 -123.15911 24 ft 0 kts 281°
2026-05-08 03:21 49.18478 -123.16117 24 ft 52 kts 279°
2026-05-08 03:22 49.18578 -123.17007 24 ft 116 kts 280°
2026-05-08 03:22 49.18750 -123.18501 47 ft 164 kts 279°
2026-05-08 03:22 49.18955 -123.20269 567 ft 169 kts 279°
2026-05-08 03:22 49.19146 -123.21999 1284 ft 163 kts 272°
2026-05-08 03:23 49.19133 -123.23716 1897 ft 164 kts 264°
2026-05-08 03:23 49.19014 -123.25512 2299 ft 179 kts 262°
2026-05-08 03:23 49.18848 -123.27481 2696 ft 196 kts 262°
2026-05-08 03:23 49.18678 -123.29654 3096 ft 215 kts 263°
2026-05-08 03:24 49.18497 -123.31988 3530 ft 233 kts 263°
2026-05-08 03:24 49.18294 -123.34534 3989 ft 251 kts 263°
2026-05-08 03:24 49.17851 -123.37210 4452 ft 268 kts 242°
2026-05-08 03:24 49.16617 -123.39345 5144 ft 274 kts 213°
2026-05-08 03:25 49.14904 -123.40562 5701 ft 276 kts 199°
2026-05-08 03:25 49.13057 -123.41447 5935 ft 278 kts 196°
2026-05-08 03:25 49.11205 -123.42248 5951 ft 277 kts 194°
2026-05-08 03:25 49.09305 -123.42464 5934 ft 276 kts 166°
2026-05-08 03:26 49.07658 -123.41099 5955 ft 274 kts 133°
2026-05-08 03:26 49.06688 -123.38648 5959 ft 272 kts 106°
2026-05-08 03:26 49.06483 -123.35814 5962 ft 271 kts 87°
2026-05-08 03:26 49.06549 -123.32956 5953 ft 271 kts 87°
2026-05-08 03:27 49.06594 -123.30057 5956 ft 271 kts 88°
2026-05-08 03:27 49.06619 -123.27213 5965 ft 271 kts 88°
2026-05-08 03:27 49.06632 -123.24324 5957 ft 271 kts 89°
2026-05-08 03:27 49.06636 -123.21492 5945 ft 270 kts 89°
2026-05-08 03:28 49.06634 -123.18637 5947 ft 270 kts 89°
2026-05-08 03:28 49.06628 -123.15763 5955 ft 269 kts 89°
2026-05-08 03:28 49.06620 -123.12907 5960 ft 269 kts 89°
2026-05-08 03:28 49.06610 -123.10063 5952 ft 269 kts 89°
2026-05-08 03:29 49.06599 -123.07200 6006 ft 273 kts 89°
2026-05-08 03:29 49.06586 -123.04291 6590 ft 278 kts 89°
2026-05-08 03:29 49.06573 -123.01389 7425 ft 277 kts 90°
2026-05-08 03:29 49.06560 -122.98450 8197 ft 280 kts 90°
2026-05-08 03:30 49.06530 -122.92488 9631 ft 288 kts 90°
2026-05-08 03:30 49.06493 -122.86284 10713 ft 308 kts 91°
2026-05-08 03:31 49.06445 -122.79391 11399 ft 342 kts 91°
2026-05-08 03:31 49.06391 -122.71891 12256 ft 367 kts 91°
2026-05-08 03:32 49.06361 -122.67960 12958 ft 371 kts 91°
2026-05-08 03:32 49.06331 -122.64045 13645 ft 376 kts 91°
2026-05-08 03:32 49.06298 -122.60072 14293 ft 381 kts 91°
2026-05-08 03:32 49.06263 -122.56023 14929 ft 386 kts 91°
2026-05-08 03:33 49.06225 -122.51904 15572 ft 391 kts 91°
2026-05-08 03:33 49.06187 -122.47789 16189 ft 396 kts 91°
2026-05-08 03:33 49.06146 -122.43563 16813 ft 401 kts 91°
2026-05-08 03:33 49.06103 -122.39323 17430 ft 406 kts 91°
2026-05-08 03:34 49.06059 -122.35016 18032 ft 411 kts 91°
2026-05-08 03:34 49.06011 -122.30639 18637 ft 416 kts 91°
2026-05-08 03:34 49.05961 -122.26268 19222 ft 420 kts 91°
2026-05-08 03:34 49.05908 -122.21820 19810 ft 425 kts 91°
2026-05-08 03:35 49.05854 -122.17265 20382 ft 429 kts 91°
2026-05-08 03:35 49.05797 -122.12727 20921 ft 434 kts 91°
2026-05-08 03:35 49.05739 -122.08166 21439 ft 438 kts 91°
2026-05-08 03:35 49.05677 -122.03509 21951 ft 443 kts 91°
2026-05-08 03:36 49.05613 -121.98762 22444 ft 448 kts 91°
2026-05-08 03:36 49.05547 -121.94012 22935 ft 452 kts 90°
2026-05-08 03:36 49.05477 -121.89226 23430 ft 455 kts 90°
2026-05-08 03:36 49.05406 -121.84418 23903 ft 459 kts 90°
2026-05-08 03:37 49.05332 -121.79600 24361 ft 463 kts 90°
2026-05-08 03:37 49.05255 -121.74680 24835 ft 466 kts 90°
2026-05-08 03:37 49.05205 -121.69753 25310 ft 469 kts 88°
2026-05-08 03:37 49.05315 -121.64789 25728 ft 473 kts 84°
2026-05-08 03:38 49.05617 -121.59765 26149 ft 476 kts 81°
2026-05-08 03:38 49.06054 -121.54803 26581 ft 479 kts 79°
2026-05-08 03:38 49.06520 -121.49793 26993 ft 482 kts 79°
2026-05-08 03:38 49.06997 -121.44701 27408 ft 485 kts 79°
2026-05-08 03:39 49.07469 -121.39613 27797 ft 488 kts 79°
2026-05-08 03:39 49.07938 -121.34491 28169 ft 492 kts 80°
2026-05-08 03:39 49.08402 -121.29382 28536 ft 494 kts 80°
2026-05-08 03:39 49.08869 -121.24192 28907 ft 497 kts 80°
2026-05-08 03:40 49.09333 -121.18992 29267 ft 500 kts 80°
2026-05-08 03:40 49.09800 -121.13724 29609 ft 502 kts 80°
2026-05-08 03:40 49.10264 -121.08455 29974 ft 505 kts 80°
2026-05-08 03:40 49.10727 -121.03166 30464 ft 504 kts 80°
2026-05-08 03:41 49.11181 -120.97929 31009 ft 502 kts 79°
2026-05-08 03:41 49.11638 -120.92654 31529 ft 500 kts 79°
2026-05-08 03:41 49.12089 -120.87419 31984 ft 500 kts 79°
2026-05-08 03:41 49.12535 -120.82220 32416 ft 499 kts 79°
2026-05-08 03:42 49.12986 -120.76935 32846 ft 499 kts 79°
2026-05-08 03:42 49.13430 -120.71713 33282 ft 498 kts 79°
2026-05-08 03:42 49.13865 -120.66536 33704 ft 498 kts 79°
2026-05-08 03:42 49.14305 -120.61285 34136 ft 497 kts 79°
2026-05-08 03:43 49.14735 -120.56130 34602 ft 497 kts 79°
2026-05-08 03:43 49.15278 -120.49579 35182 ft 496 kts 79°
2026-05-08 03:43 49.15707 -120.44374 35640 ft 495 kts 79°
2026-05-08 03:43 49.16134 -120.39171 36067 ft 494 kts 79°
2026-05-08 03:44 49.16553 -120.34010 36493 ft 493 kts 79°
2026-05-08 03:44 49.16970 -120.28864 36861 ft 493 kts 79°
2026-05-08 03:44 49.17386 -120.23679 37246 ft 492 kts 79°
2026-05-08 03:44 49.17804 -120.18465 37574 ft 492 kts 79°
2026-05-08 03:45 49.18214 -120.13320 37828 ft 494 kts 79°
2026-05-08 03:45 49.18628 -120.08105 38055 ft 495 kts 79°
2026-05-08 03:45 49.19038 -120.02907 38284 ft 497 kts 79°
2026-05-08 03:45 49.19447 -119.97691 38471 ft 499 kts 79°
2026-05-08 03:46 49.19855 -119.92424 38704 ft 500 kts 79°
2026-05-08 03:46 49.20259 -119.87199 38944 ft 501 kts 79°
2026-05-08 03:46 49.20663 -119.81936 39058 ft 502 kts 79°
2026-05-08 03:47 49.21470 -119.71326 39059 ft 504 kts 78°
2026-05-08 03:47 49.22268 -119.60705 39035 ft 503 kts 78°
2026-05-08 03:48 49.23052 -119.50098 39000 ft 502 kts 78°
2026-05-08 03:48 49.23821 -119.39617 38994 ft 502 kts 78°
2026-05-08 03:49 49.24591 -119.28990 39021 ft 503 kts 79°
2026-05-08 03:49 49.25325 -119.18544 39037 ft 504 kts 79°
2026-05-08 03:50 49.26031 -119.07909 39013 ft 503 kts 79°
2026-05-08 03:50 49.26725 -118.97259 38979 ft 503 kts 79°
2026-05-08 03:51 49.27351 -118.87537 38975 ft 503 kts 79°